GW6200 Weather Reports


time (UTC)temp
C
wind
direction
speed
KPH
gust
KPH
rain 1hr
cm
rain 24hr
cm
rain mn
cm
humidity
%
barometer
mb
20260506051031 5 9 0.0 3.2 0.00 0.00 0.00 85 1016.4
20260506045031 3 16 0.0 3.2 0.00 0.00 0.00 87 1016.4
20260506043030 3 16 0.0 3.2 0.00 0.00 0.00 88 1016.3
20260506042034 3 15 0.0 3.2 0.00 0.00 0.00 88 1016.2
20260506041031 3 10 0.0 4.8 0.00 0.00 0.00 88 1016.3
20260506040035 3 9 0.0 1.6 0.00 0.00 0.00 88 1016.3
20260506035030 3 9 0.0 3.2 0.00 0.00 0.00 88 1016.4
20260506033031 2 9 0.0 3.2 0.00 0.00 0.00 88 1016.4
20260506032032 2 9 0.0 0.0 0.00 0.00 0.00 87 1016.4
20260506031035 2 9 0.0 1.6 0.00 0.00 0.00 87 1016.5
20260506030036 2 9 0.0 1.6 0.00 0.00 0.00 86 1016.5
20260506025038 2 9 0.0 1.6 0.00 0.00 0.00 86 1016.6
20260506023030 3 9 0.0 0.0 0.00 0.00 0.00 85 1016.6
20260506022029 3 9 0.0 1.6 0.00 0.00 0.00 85 1016.7
20260506020030 3 9 0.0 3.2 0.00 0.00 0.00 85 1016.6
20260506015035 3 51 0.0 3.2 0.00 0.00 0.00 86 1016.6
20260506012029 2 26 0.0 3.2 0.00 0.00 0.00 85 1016.7
20260506011029 3 82 0.0 1.6 0.00 0.00 0.00 84 1016.8
20260506010032 3 82 0.0 1.6 0.00 0.00 0.00 83 1016.7
20260506005032 3 82 0.0 1.6 0.00 0.00 0.00 82 1016.7
20260506004038 3 82 0.0 1.6 0.00 0.00 0.00 81 1016.7
20260506003026 3 82 0.0 3.2 0.00 0.00 0.00 81 1016.7
20260506002028 3 82 0.0 1.6 0.00 0.00 0.00 80 1016.8
20260506001032 4 82 0.0 1.6 0.00 0.00 0.00 79 1016.8
20260505235034 5 82 0.0 1.6 0.00 0.00 0.00 78 1016.8
20260505234028 5 82 0.0 3.2 0.00 0.00 0.00 78 1016.9
20260505231035 6 82 0.0 4.8 0.00 0.00 0.00 76 1016.9
20260505230026 6 107 1.6 4.8 0.00 0.00 0.00 76 1016.9
20260505225030 6 145 1.6 4.8 0.00 0.00 0.00 77 1017.0
20260505223020 6 111 1.6 6.4 0.00 0.00 0.00 77 1016.9
20260505222024 6 57 1.6 6.4 0.00 0.00 0.00 77 1017.0
20260505221027 6 86 1.6 11.3 0.00 0.00 0.00 77 1017.0
20260505220023 6 124 3.2 11.3 0.00 0.00 0.00 77 1016.9
20260505215024 6 73 1.6 3.2 0.00 0.00 0.00 78 1016.9
20260505214012 6 86 1.6 6.4 0.00 0.00 0.00 78 1016.9
20260505213011 6 84 1.6 4.8 0.00 0.00 0.00 77 1016.9
20260505212012 6 76 1.6 4.8 0.00 0.00 0.00 76 1016.8
20260505211011 6 63 1.6 4.8 0.00 0.00 0.00 75 1016.8
20260505210013 7 68 1.6 6.4 0.00 0.00 0.00 74 1016.8
20260505205012 7 107 1.6 6.4 0.00 0.00 0.00 73 1016.8
20260505204015 7 88 1.6 4.8 0.00 0.00 0.00 73 1016.7
20260505202013 7 106 1.6 4.8 0.00 0.00 0.00 72 1016.6
20260505201011 8 83 1.6 9.7 0.00 0.00 0.00 71 1016.6
20260505200012 8 31 3.2 6.4 0.00 0.00 0.00 71 1016.6
20260505195024 8 63 3.2 6.4 0.00 0.00 0.00 72 1016.5
20260505194026 8 96 3.2 8.0 0.00 0.00 0.00 72 1016.3
20260505192005 8 87 1.6 4.8 0.00 0.00 0.00 73 1016.1
20260505191006 9 71 1.6 6.4 0.00 0.00 0.00 72 1016.1
20260505190007 9 172 1.6 6.4 0.00 0.00 0.00 72 1015.9
20260505185006 9 78 1.6 8.0 0.00 0.00 0.00 71 1015.9
20260505184007 9 325 1.6 6.4 0.00 0.00 0.00 70 1015.9
20260505182006 10 108 3.2 8.0 0.00 0.00 0.00 70 1015.8
20260505181005 10 5 1.6 9.7 0.00 0.00 0.00 71 1015.8
20260505180002 10 126 3.2 9.7 0.00 0.00 0.00 70 1015.7
20260505175003 10 70 3.2 14.5 0.00 0.00 0.00 68 1015.7
20260505174004 10 132 3.2 14.5 0.00 0.00 0.00 69 1015.8
20260505173004 10 97 3.2 12.9 0.00 0.00 0.00 69 1015.7
20260505172003 10 82 3.2 9.7 0.00 0.00 0.00 71 1015.7
20260505171004 10 189 3.2 9.7 0.00 0.00 0.00 68 1015.7
20260505170006 10 74 3.2 12.9 0.00 0.00 0.00 69 1015.7
20260505165004 10 81 4.8 12.9 0.00 0.00 0.00 69 1015.6
20260505164003 11 173 3.2 12.9 0.00 0.00 0.00 69 1015.4
20260505162002 11 143 3.2 11.3 0.00 0.00 0.00 68 1015.3
20260505161002 11 93 4.8 16.1 0.00 0.00 0.00 68 1015.3
20260505153003 11 133 4.8 16.1 0.00 0.00 0.00 72 1015.2
20260505151002 11 217 3.2 12.9 0.00 0.00 0.00 73 1015.1
20260505123003 13 272 1.6 4.8 0.00 0.00 0.00 64 1014.3
20260505122005 14 264 1.6 4.8 0.00 0.00 0.00 60 1014.3
20260505121005 15 236 3.2 9.7 0.00 0.00 0.00 59 1014.3
20260505120006 16 119 3.2 12.9 0.00 0.00 0.00 58 1014.3
20260505115002 13 156 1.6 4.8 0.00 0.00 0.00 65 1014.3
20260505113003 13 355 3.2 9.7 0.00 0.00 0.00 64 1014.3
20260505112003 14 140 1.6 8.0 0.00 0.00 0.00 64 1014.3
20260505111002 15 347 1.6 4.8 0.00 0.00 0.00 62 1014.3
20260505102016 13 51 1.6 3.2 0.00 0.00 0.00 66 1014.5
20260505101005 12 270 1.6 6.4 0.00 0.00 0.00 66 1014.5
20260505100006 12 338 1.6 6.4 0.00 0.00 0.00 69 1014.5
20260505095003 12 74 1.6 4.8 0.00 0.00 0.00 69 1014.6
20260505094004 12 74 1.6 6.4 0.00 0.00 0.00 70 1014.5
20260505093004 11 121 1.6 6.4 0.00 0.00 0.00 71 1014.6
20260505092004 11 53 4.8 14.5 0.00 0.00 0.00 71 1014.6
20260505091004 11 355 6.4 19.3 0.00 0.00 0.00 67 1014.5
20260505090004 12 285 6.4 12.9 0.00 0.00 0.00 68 1014.5
20260505085002 11 317 6.4 14.5 0.00 0.00 0.00 71 1014.5
20260505084003 12 275 6.4 17.7 0.00 0.00 0.00 70 1014.5
20260505083004 11 265 4.8 14.5 0.00 0.00 0.00 71 1014.6
20260505082002 11 292 4.8 14.5 0.00 0.00 0.00 73 1014.7
20260505081002 11 249 4.8 14.5 0.00 0.00 0.00 75 1014.6
20260505080002 11 293 4.8 12.9 0.00 0.00 0.00 76 1014.6
20260505074001 10 294 4.8 12.9 0.00 0.00 0.00 79 1014.7
20260505073023 10 286 3.2 12.9 0.00 0.00 0.00 81 1014.5
20260505072002 10 299 4.8 14.5 0.00 0.00 0.00 81 1014.5
20260505071001 10 305 4.8 14.5 0.00 0.00 0.00 82 1014.5
20260505070002 9 309 4.8 12.9 0.00 0.00 0.00 84 1014.5
20260505064003 8 314 4.8 9.7 0.00 0.00 0.00 85 1014.5
20260505062003 8 275 1.6 6.4 0.00 0.00 0.00 90 1014.4
20260505061002 8 274 1.6 6.4 0.00 0.00 0.00 91 1014.5
20260505055002 7 307 1.6 9.7 0.00 0.00 0.00 91 1014.3
20260505053003 7 327 0.0 4.8 0.00 0.00 0.00 93 1014.3